x

9431647 - Port Orford, Or (poro3) Weather Station

6:54am - Tue 21st Apr 2015 All times are PDT. -7 hours from GMT.

  • Wind
    11mph, 23mph gusts
  • Air Temp 54°f
  • Sea Pressure 1014.3mb
  • 9431647 - Port Orford, Or
  • 9431647 - Port Orford, Or

More Historic Weather Station data

Upgrade to MSW Pro to gain access to the past 30 days of data for over 8000 Wavebouys and Weather Stations around the globe.

Join Pro

Comparision Forecast

View Surf forecast
   
Tue 04/21 6:54am 11 23 mph 1014.3mb 54f
6:48am 13 21 mph 1014.2mb 54f
6:42am 16 20 mph 1014.2mb 54f
6:36am 16 22 mph 1014.2mb 54f
6:30am 13 17 mph 1014.2mb 54f
6:24am 10 15 mph 1014.3mb 54f
6:18am 10 18 mph 1014.3mb 54f
6:12am 11 18 mph 1014.2mb 54f
6:06am 14 17 mph 1014.2mb 54f
6:00am 14 20 mph 1014.3mb 54f
5:54am 10 15 mph 1014.3mb 54f
5:48am 13 17 mph 1014.2mb 54f
5:42am 14 24 mph 1014.2mb 54f
5:36am 15 21 mph 1014.2mb 54f
5:30am 13 17 mph 1014.2mb 54f
5:24am 11 15 mph 1014.1mb 54f
5:18am 9 14 mph 1014.2mb 53f
5:12am 11 16 mph 1014.2mb 53f
5:06am 11 17 mph 1014.1mb 53f
5:00am 13 16 mph 1014.1mb 53f
4:54am 11 15 mph 1014.1mb 53f
4:48am 11 16 mph 1014.1mb 53f
4:42am 13 16 mph 1014.1mb 53f
4:36am 11 15 mph 1014mb 52f
4:30am 9 14 mph 1014.1mb 52f
4:24am 11 14 mph 1014.1mb 52f
4:18am 11 16 mph 1014.1mb 52f
4:12am 9 15 mph 1014.1mb 52f
4:06am 11 17 mph 1014.1mb 52f
4:00am 13 15 mph 1014mb 52f
3:54am 11 20 mph 1014mb 52f
3:48am 13 21 mph 1013.9mb 52f
3:42am 14 18 mph 1013.9mb 52f
3:36am 11 18 mph 1013.8mb 52f
3:30am 15 21 mph 1013.8mb 52f
3:24am 14 22 mph 1013.9mb 52f
3:18am 13 20 mph 1013.8mb 52f
3:12am 15 25 mph 1013.9mb 52f
3:06am 16 25 mph 1013.9mb 52f
3:00am 14 21 mph 1013.9mb 52f
2:54am 15 22 mph 1013.9mb 52f
2:48am 14 21 mph 1013.9mb 52f
2:42am 16 24 mph 1013.8mb 52f
2:36am 14 22 mph 1013.8mb 51f
2:30am 14 21 mph 1013.7mb -
2:24am 14 20 mph 1013.7mb -
2:18am 14 20 mph 1013.7mb 51f
2:12am 14 18 mph 1013.7mb 51f
2:06am 11 16 mph 1013.7mb 50f
2:00am 10 16 mph 1013.7mb 50f
1:54am 10 14 mph 1013.7mb 50f
1:48am 10 15 mph 1013.6mb 50f
1:42am 10 17 mph 1013.6mb 50f
1:36am 11 20 mph 1013.6mb 50f
1:30am 11 16 mph 1013.6mb 50f
1:24am 13 20 mph 1013.5mb 50f
1:18am 13 17 mph 1013.5mb 50f
1:12am 11 17 mph 1013.4mb 50f
1:06am 10 14 mph 1013.4mb 50f
1:00am 10 18 mph 1013.3mb 50f
12:54am 11 18 mph 1013.4mb 50f
12:48am 10 18 mph 1013.4mb 50f
12:42am 11 16 mph 1013.4mb 50f
12:36am 14 18 mph 1013.5mb 50f
12:30am 13 15 mph 1013.4mb 50f
12:24am 10 15 mph 1013.4mb 50f
12:18am 13 17 mph 1013.3mb 50f
12:12am 11 17 mph 1013.3mb 50f
12:06am 13 17 mph 1013.2mb 50f
12:00am 10 16 mph 1013.2mb 50f
Mon 04/20 11:54pm 13 18 mph 1013.1mb 50f
11:48pm 13 20 mph 1013.1mb 50f
11:42pm 11 20 mph 1013.1mb 50f
11:36pm 10 16 mph 1013mb 50f
11:30pm 14 18 mph 1012.9mb 50f
11:24pm 13 17 mph 1012.8mb 50f
11:18pm 14 18 mph 1012.8mb 50f
11:12pm 14 18 mph 1012.9mb 50f
11:06pm 15 22 mph 1012.8mb 51f
11:00pm 14 21 mph 1012.7mb 51f
10:54pm 15 21 mph 1012.7mb 51f
10:48pm 15 22 mph 1012.6mb 51f
10:42pm 14 20 mph 1012.6mb 50f
10:36pm 15 21 mph 1012.6mb 50f
10:30pm 14 20 mph 1012.7mb 51f
10:24pm 14 20 mph 1012.7mb 51f
10:18pm 14 22 mph 1012.7mb 51f
10:12pm 13 17 mph 1012.7mb 50f
10:06pm 14 20 mph 1012.7mb 50f
10:00pm 14 21 mph 1012.8mb 51f
9:54pm 13 20 mph 1012.8mb 51f
9:48pm 13 21 mph 1012.7mb 51f
9:42pm 14 18 mph 1012.8mb 51f
9:36pm 13 20 mph 1012.7mb 51f
9:30pm 14 22 mph 1012.6mb 51f
9:24pm 13 20 mph 1012.6mb 51f
9:18pm 14 18 mph 1012.5mb 51f
9:12pm 15 21 mph 1012.5mb 51f
9:06pm 11 17 mph 1012.4mb 51f
9:00pm 14 20 mph 1012.5mb 51f
8:54pm 13 17 mph 1012.5mb 51f